This demonstration page uses our WeatherBlox Daily Observations layout. Learn more.

Left ArrowRight Arrow

Hourly Observations for March 10, 2019

Temp ( °F °C ) Dew Point ( °F °C ) Humidity (%) Winds ( mph kmh ) Pressure ( in mb ) Visibility ( mi km ) Precip ( " mm )
12:57 am 00:57 Clear 23 -5 17 -8.3 78 78 WNW 8 13 30.06 1018 10 16 0.00 0.00
1:57 am 01:57 Clear 24 -4.4 18 -7.8 77 77 W 12 19 30.11 1020 10 16 0.00 0.00
3:57 am 03:57 Clear 22 -5.6 16 -8.9 78 78 WNW 10 17 30.14 1021 10 16 0.00 0.00
4:57 am 04:57 Clear 20 -6.7 14 -10 78 78 NNW 13 20 30.11 1020 10 16 0.00 0.00
5:57 am 05:57 Clear 20 -6.7 15 -9.4 81 81 WNW 10 17 30.16 1022 10 16 0.00 0.00
6:57 am 06:57 Clear 19 -7.2 14 -10 81 81 W 7 11 30.21 1023 10 16 0.00 0.00
7:57 am 07:57 Sunny 19 -7.2 14 -10 81 81 W 6 9 30.23 1024 10 16 0.00 0.00
8:57 am 08:57 Sunny 22 -5.6 15 -9.4 75 75 WNW 8 13 30.26 1025 10 16 0.00 0.00
9:57 am 09:57 Sunny 26 -3.3 18 -7.8 71 71 WNW 12 19 30.27 1025 10 16 0.00 0.00
10:57 am 10:57 Sunny 30 -1.1 20 -6.7 66 66 WNW 12 19 30.28 1026 10 16 0.00 0.00
11:57 am 11:57 Sunny 31 -0.6 21 -6.1 67 67 NW 7 11 30.29 1026 10 16 0.00 0.00
12:57 pm 12:57 Sunny 34 1.1 20 -6.7 56 56 NW 7 11 30.32 1027 10 16 0.00 0.00
1:57 pm 13:57 Mostly Sunny 36 2.2 18 -7.8 48 48 NW 3 6 30.31 1026 10 16 0.00 0.00
2:57 pm 14:57 Cloudy 35 1.7 21 -6.1 57 57 E 3 6 30.29 1026 10 16 0.00 0.00
3:57 pm 15:57 Cloudy 36 2.2 22 -5.6 57 57 SE 3 6 30.29 1026 10 16 0.00 0.00
4:57 pm 16:57 Mostly Cloudy 36 2.2 23 -5 59 59 SSE 9 15 30.29 1026 10 16 0.00 0.00
5:57 pm 17:57 Sunny 35 1.7 22 -5.6 59 59 SE 8 13 30.28 1025 10 16 0.00 0.00
6:57 pm 18:57 Sunny 34 1.1 25 -3.9 70 70 ESE 7 11 30.28 1025 10 16 0.00 0.00
7:57 pm 19:57 Clear 31 -0.6 25 -3.9 79 79 ESE 7 11 30.29 1026 10 16 0.00 0.00
8:57 pm 20:57 Clear 28 -2.2 23 -5 81 81 SSE 7 11 30.31 1026 10 16 0.00 0.00
9:57 pm 21:57 Clear 28 -2.2 22 -5.6 78 78 S 6 9 30.32 1027 10 16 0.00 0.00
10:57 pm 22:57 Clear 26 -3.3 22 -5.6 84 84 SE 3 6 30.34 1027 10 16 0.00 0.00
11:57 pm 23:57 Clear 25 -3.9 21 -6.1 85 85 S 6 9 30.34 1028 10 16 0.00 0.00

Powered by AerisWeather